Stations météo

réclame
Mon MeteoGroup
Zaragoza/Aeropuerto, Espagne (8160): Température de l'air & dewpoint: 12.01.2020 00:00:00 - 18.01.2020 00:00:00 (CET)Zaragoza/Aeropuerto, Espagne (8160): Vitesse du vent: 12.01.2020 00:00:00 - 18.01.2020 00:00:00 (CET)Zaragoza/Aeropuerto, Espagne (8160): Direction du vent: 12.01.2020 00:00:00 - 18.01.2020 00:00:00 (CET)Zaragoza/Aeropuerto, Espagne (8160): reduced air pressure: 12.01.2020 00:00:00 - 18.01.2020 00:00:00 (CET)Zaragoza/Aeropuerto, Espagne (8160): visibility: 12.01.2020 00:00:00 - 18.01.2020 00:00:00 (CET)Zaragoza/Aeropuerto, Espagne (8160): Quantités de précipitations: 12.01.2020 00:00:00 - 18.01.2020 00:00:00 (CET)
Date & Time tt [°C] td [°C] ff [km/h] ff [knt] dd ppp [hPa] vv [km] rr [mm]
18.01.2020 00:00:00 - - - - - - - -
17.01.2020 23:00:00 6,3 2,2 15 8 W 1033,4 - 0,0
17.01.2020 22:00:00 5,8 2,4 11 6 WNW 1033,6 20 -
17.01.2020 21:00:00 6,8 2,5 11 6 WNW 1033,1 - 0,0
17.01.2020 20:00:00 7,6 3,3 11 6 WNW 1033,1 - 0,0
17.01.2020 19:00:00 9,1 3,5 13 7 NW 1032,0 25 -
17.01.2020 18:00:00 11,2 4,4 13 7 NW 1030,7 - 0,0
17.01.2020 17:00:00 12,3 4,3 16 9 NW 1029,7 - 0,0
17.01.2020 16:00:00 13,3 3,9 21 11 NNW 1028,8 25 -
17.01.2020 15:00:00 14,6 5,1 22 12 NNW 1027,6 - 0,0
17.01.2020 14:00:00 16,1 4,5 34 18 W 1027,2 - 0,0
17.01.2020 13:00:00 14,5 5,6 34 18 W 1027,5 25 -
17.01.2020 12:00:00 13,0 5,6 31 17 W 1028,4 - 0,0
17.01.2020 11:00:00 12,3 5,9 31 17 W 1028,3 - 0,0
17.01.2020 10:00:00 9,5 5,3 24 13 W 1028,3 20 -
17.01.2020 09:00:00 4,1 3,7 5 3 NE 1028,5 - 0,0
17.01.2020 08:00:00 4,1 3,5 9 5 E 1027,7 - 0,0
17.01.2020 07:00:00 5,1 3,9 8 4 ENE 1027,0 10 -
17.01.2020 06:00:00 5,2 4,2 11 6 S 1026,7 - 0,0
17.01.2020 05:00:00 5,6 4,7 13 7 SE 1026,9 - 0,0
17.01.2020 04:00:00 6,2 5,0 11 6 SE 1026,7 20 -
17.01.2020 03:00:00 6,1 4,9 8 4 E 1027,0 - 0,0
17.01.2020 02:00:00 6,1 4,6 5 3 SSE 1027,0 - 0,0
17.01.2020 01:00:00 6,6 4,8 8 4 E 1026,6 20 -
17.01.2020 00:00:00 7,1 4,9 13 7 SE 1026,7 - 0,0
16.01.2020 23:00:00 6,8 4,5 13 7 ESE 1026,7 - 0,0
16.01.2020 22:00:00 7,5 4,6 13 7 E 1026,3 20 -
16.01.2020 21:00:00 7,5 4,6 9 5 E 1026,3 - 0,0
16.01.2020 20:00:00 8,3 4,9 11 6 ESE 1026,1 - 0,0
16.01.2020 19:00:00 9,8 5,2 11 6 E 1025,7 20 -
16.01.2020 18:00:00 11,1 5,2 16 9 ESE 1025,0 - 0,0
16.01.2020 17:00:00 12,4 5,5 18 10 ESE 1025,1 - 0,0
16.01.2020 16:00:00 12,8 5,7 18 10 ESE 1025,2 30 -
16.01.2020 15:00:00 12,8 5,5 15 8 E 1025,8 - 0,0
16.01.2020 14:00:00 11,8 5,2 13 7 E 1026,5 - 0,0
16.01.2020 13:00:00 9,3 4,5 16 9 ESE 1027,8 20 -
16.01.2020 12:00:00 7,2 3,2 13 7 E 1029,1 - 0,0
16.01.2020 11:00:00 4,5 2,4 16 9 ESE 1030,0 - 0,0
16.01.2020 10:00:00 2,2 1,8 11 6 ESE 1030,1 3,0 -
16.01.2020 09:00:00 0,5 0,4 13 7 ESE 1030,0 - 0,0
16.01.2020 08:00:00 0,3 0,0 11 6 ESE 1030,0 - 0,0
16.01.2020 07:00:00 0,4 0,1 13 7 SE 1029,7 0,6 -
16.01.2020 06:00:00 0,8 0,4 13 7 ESE 1029,4 - 0,0
16.01.2020 05:00:00 1,1 0,5 15 8 ESE 1029,3 - 0,0
16.01.2020 04:00:00 1,4 0,7 9 5 ESE 1029,1 8 -
16.01.2020 03:00:00 2,0 1,1 9 5 ESE 1029,0 - 0,0
16.01.2020 02:00:00 2,1 1,1 8 4 ESE 1028,7 - 0,0
16.01.2020 01:00:00 2,9 1,7 9 5 E 1028,7 15 -
16.01.2020 00:00:00 3,0 1,7 8 4 E 1029,2 - 0,0
15.01.2020 23:00:00 3,3 2,0 5 3 SE 1029,0 - 0,0
15.01.2020 22:00:00 4,4 2,4 5 3 E 1028,3 15 -
15.01.2020 21:00:00 5,3 2,8 8 4 ESE 1027,8 - 0,0
15.01.2020 20:00:00 5,4 2,4 8 4 SSE 1027,6 - 0,0
15.01.2020 19:00:00 5,9 3,1 5 3 E 1026,7 15 -
15.01.2020 18:00:00 6,6 3,4 11 6 E 1025,5 - 0,0
15.01.2020 17:00:00 7,7 3,2 9 5 E 1024,9 - 0,0
15.01.2020 16:00:00 7,8 2,7 11 6 ESE 1024,4 11 -
15.01.2020 15:00:00 5,7 2,0 13 7 SE 1024,9 - 0,0
15.01.2020 14:00:00 4,5 1,5 9 5 ESE 1025,8 - 0,0
15.01.2020 13:00:00 4,0 0,7 16 9 E 1026,5 9 -
15.01.2020 12:00:00 2,1 0,0 16 9 ESE 1027,1 - 0,0
15.01.2020 11:00:00 0,1 -0,2 13 7 ESE 1027,3 - 0,0
15.01.2020 10:00:00 -1,4 -1,4 11 6 ESE 1026,8 3,0 -
15.01.2020 09:00:00 -2,1 -2,1 11 6 ESE 1026,4 - 0,0
15.01.2020 08:00:00 -2,0 -2,1 11 6 E 1025,6 - 0,0
15.01.2020 07:00:00 -1,5 -1,5 11 6 ESE 1025,0 5 -
15.01.2020 06:00:00 -1,4 -1,4 13 7 ESE 1024,9 - 0,0
15.01.2020 05:00:00 -1,4 -1,4 11 6 ESE 1024,6 - 0,0
15.01.2020 04:00:00 -1,1 -1,1 9 5 SE 1025,1 0,4 -
15.01.2020 03:00:00 -1,0 -1,1 13 7 SE 1024,9 - 0,0
15.01.2020 02:00:00 -0,6 -0,7 13 7 ESE 1024,7 - 0,0
15.01.2020 01:00:00 -0,6 -0,7 13 7 E 1024,6 0,3 -
15.01.2020 00:00:00 -0,6 -0,9 9 5 ESE 1024,6 - 0,0
14.01.2020 23:00:00 0,0 -0,3 5 3 ESE 1024,8 - 0,0
14.01.2020 22:00:00 0,3 0,0 13 7 ESE 1024,4 5 -
14.01.2020 21:00:00 0,2 -0,2 11 6 ESE 1024,1 - 0,0
14.01.2020 20:00:00 0,7 0,1 8 4 E 1024,1 - 0,0
14.01.2020 19:00:00 1,5 0,6 11 6 ESE 1023,4 10 -
14.01.2020 18:00:00 3,0 1,2 15 8 ESE 1022,9 - 0,0
14.01.2020 17:00:00 5,1 1,8 15 8 ESE 1022,5 - 0,0
14.01.2020 16:00:00 4,5 1,3 11 6 E 1022,4 12 -
14.01.2020 15:00:00 3,8 0,7 9 5 E 1022,7 - 0,0
14.01.2020 14:00:00 2,6 0,5 11 6 ESE 1023,3 - 0,0
14.01.2020 13:00:00 0,3 0,3 11 6 ESE 1024,5 3,0 -
14.01.2020 12:00:00 -0,7 -0,7 5 3 E 1025,6 - 0,0
14.01.2020 11:00:00 -1,6 -1,6 9 5 SE 1025,8 - 0,0
14.01.2020 10:00:00 -2,2 -2,2 8 4 ESE 1025,6 0,3 -
14.01.2020 09:00:00 -2,6 -2,6 5 3 ESE 1025,1 - 0,0
14.01.2020 08:00:00 -2,5 -2,5 5 3 SSW 1025,1 - 0,0
14.01.2020 07:00:00 -2,5 -2,5 2 1 NE 1025,0 0,3 -
14.01.2020 06:00:00 -2,2 -2,2 9 5 E 1024,4 - 0,0
14.01.2020 05:00:00 -2,1 -2,2 13 7 ESE 1023,8 - 0,0
14.01.2020 04:00:00 -1,3 -1,3 9 5 ESE 1024,0 0,3 -
14.01.2020 03:00:00 -1,5 -1,5 8 4 SE 1024,4 - 0,0
14.01.2020 02:00:00 -0,8 -0,8 9 5 E 1024,5 - 0,0
14.01.2020 01:00:00 -1,4 -1,5 9 5 SSE 1025,2 0,3 -
14.01.2020 00:00:00 -0,4 -0,5 5 3 SSE 1025,2 - 0,0
13.01.2020 23:00:00 -0,5 -0,6 9 5 SE 1024,8 - 0,0
13.01.2020 22:00:00 -0,3 -0,4 11 6 ESE 1024,8 0,2 -
13.01.2020 21:00:00 -0,2 -0,5 15 8 ESE 1024,6 - 0,0
13.01.2020 20:00:00 -0,4 -0,8 15 8 ESE 1024,4 - 0,0
13.01.2020 19:00:00 0,1 -0,5 11 6 SE 1024,8 0,9 -
13.01.2020 18:00:00 0,7 -0,2 9 5 SE 1024,8 - 0,0
13.01.2020 17:00:00 1,5 -0,4 8 4 E 1025,1 - 0,0
13.01.2020 16:00:00 2,3 -0,3 13 7 ESE 1024,6 4,5 -
13.01.2020 15:00:00 2,2 0,3 8 4 E 1025,2 - 0,0
13.01.2020 14:00:00 0,6 0,5 5 3 E 1026,2 - 0,0
13.01.2020 13:00:00 -0,4 -0,4 4 2 SSE 1027,8 0,9 -
13.01.2020 12:00:00 -1,1 -1,1 5 3 ESE 1028,5 - 0,0
13.01.2020 11:00:00 -1,7 -1,7 5 3 ESE 1029,1 - 0,0
13.01.2020 10:00:00 -1,8 -1,9 5 3 SE 1028,9 0,1 -
13.01.2020 09:00:00 -1,9 -2,0 5 3 ESE 1028,9 - 0,0
13.01.2020 08:00:00 -1,6 -1,7 5 3 SE 1028,8 - 0,0
13.01.2020 07:00:00 -1,1 -1,1 9 5 SE 1028,8 0,1 -
13.01.2020 06:00:00 -1,3 -1,4 5 3 E 1029,3 - 0,0
13.01.2020 05:00:00 -1,1 -1,2 5 3 E 1029,5 - 0,0
13.01.2020 04:00:00 -0,6 -0,7 5 3 E 1030,2 0,1 -
13.01.2020 03:00:00 -0,3 -0,4 8 4 ESE 1030,4 - 0,0
13.01.2020 02:00:00 0,0 -0,1 8 4 E 1030,9 - 0,0
13.01.2020 01:00:00 0,1 -0,2 8 4 E 1031,4 0,1 -
13.01.2020 00:00:00 0,2 -0,1 9 5 E 1031,8 - 0,0
12.01.2020 23:00:00 0,0 -0,7 11 6 ESE 1031,8 - 0,0
12.01.2020 22:00:00 1,6 0,3 15 8 ESE 1031,8 20 -
12.01.2020 21:00:00 2,4 0,8 8 4 SE 1031,7 - 0,0
12.01.2020 20:00:00 3,4 1,4 8 4 SE 1031,7 - 0,0
12.01.2020 19:00:00 4,0 1,4 8 4 ESE 1031,3 20 -
12.01.2020 18:00:00 5,8 1,9 8 4 E 1030,5 - 0,0
12.01.2020 17:00:00 8,5 2,3 9 5 E 1029,9 - 0,0
12.01.2020 16:00:00 9,3 2,4 9 5 E 1029,7 50 -
12.01.2020 15:00:00 10,1 0,1 9 5 WNW 1029,8 - 0,0
12.01.2020 14:00:00 8,9 -0,4 15 8 WNW 1030,3 - 0,0
12.01.2020 13:00:00 7,5 -0,5 11 6 NW 1031,7 75 -
12.01.2020 12:00:00 5,5 0,1 8 4 WNW 1033,2 - 0,0
12.01.2020 11:00:00 3,3 0,2 5 3 E 1033,7 - 0,0
12.01.2020 10:00:00 1,6 -0,8 5 3 ESE 1033,0 75 -
12.01.2020 09:00:00 -1,2 -2,2 4 2 ESE 1032,8 - 0,0
12.01.2020 08:00:00 -1,3 -2,7 4 2 WNW 1032,7 - 0,0
12.01.2020 07:00:00 -1,4 -2,8 2 1 NW 1032,6 15 -
12.01.2020 06:00:00 -0,9 -2,3 4 2 W 1032,2 - 0,0
12.01.2020 05:00:00 -0,8 -2,4 2 1 W 1032,2 - 0,0
12.01.2020 04:00:00 -0,1 -2,0 4 2 W 1032,2 20 -
12.01.2020 03:00:00 0,2 -1,4 2 1 W 1032,2 - 0,0
12.01.2020 02:00:00 0,4 -1,0 2 1 SSE 1032,0 - 0,0
12.01.2020 01:00:00 0,9 -0,7 5 3 SSE 1032,0 25 -
12.01.2020 00:00:00 1,5 -0,4 4 2 SE 1032,2 - 0,0

tt = Température de l'air
td = dewpoint
ff = Vitesse du vent
dd = Direction du vent
ppp = reduced air pressure
vv = visibility
rr = Quantités de précipitations

stations d'obs. à proximité